sat.trackr.live / text

‹ back to catalog

STARLINK-11479 [DTC]

NORAD 62270 · 2024-237D

PAYLOAD ACTIVE UNKNOWN

§ Identity

Operator
Country
US
Launch date
2024-12-08
Launch site
AFETR
Launch vehicle
Mass (kg)
RCS (m²)

Purposes: comms

External: N2YO · Heavens-Above · Gunter

§ Orbital elements

Epoch: 2026-09-21T14:25:30.999072Z

Period
91.67 min
Inclination
42.9976°
Eccentricity
0.0000832
Mean motion
15.70858614 rev/d
Perigee alt
355.9 km
Apogee alt
357.0 km
Semi-major
6,734.6 km
B*
1.2667e-3
RAAN
315.7557°
Arg perigee
210.7236°
Mean anomaly
149.3583°
Rev number
10,386

§ Raw data

STARLINK-11479 [DTC]1 62270U 24237D   26264.60105323  .00165487  00000+0  12667-2 0  99992 62270  42.9976 315.7557 0000832 210.7236 149.3583 15.70858614103869

JSON: /api/v1/satellites/62270 · /tle

For live sub-satellite position, see the globe view (requires WebGL).

§ Visibility from observer

Set your observer location to see the next 7 days of passes ≥ 10°. The values pass through the URL so the page stays shareable.

No JS? Fill the form by hand. The geolocation button needs JavaScript.